timestamp,wind_dir_avg,wind_spd_avg,wind_spd_max_dir,wind_spd_gust,battery_voltage,lat,long
2020-11-14 00:04:01+00:00,5.0,3.63,7.0,4.43,12.65,47.59359,-54.27349
2020-11-14 00:14:01+00:00,358.0,3.96,354.0,4.58,12.57,47.59359,-54.27349
2020-11-14 00:24:01+00:00,354.0,4.69,353.0,5.46,12.57,47.59359,-54.27349
2020-11-14 00:34:01+00:00,6.0,4.52,0.0,5.08,12.57,47.59359,-54.27349
2020-11-14 00:44:01+00:00,13.0,4.87,10.0,5.83,12.57,47.59359,-54.27349
2020-11-14 00:54:01+00:00,10.0,4.58,0.0,5.43,12.57,47.59359,-54.27349
2020-11-14 01:04:01+00:00,2.0,3.92,0.0,4.52,12.57,47.59359,-54.27349
2020-11-14 01:14:01+00:00,14.0,4.48,15.0,5.22,12.57,47.59359,-54.27349
2020-11-14 01:24:01+00:00,19.0,6.03,20.0,6.79,12.57,47.59359,-54.27349
2020-11-14 01:34:01+00:00,23.0,5.19,24.0,6.25,12.57,47.59359,-54.27349
2020-11-14 01:44:01+00:00,17.0,3.91,16.0,4.58,12.57,47.59359,-54.27349
2020-11-14 01:54:01+00:00,29.0,4.81,30.0,6.49,12.57,47.59359,-54.27349
2020-11-14 02:04:01+00:00,42.0,6.94,43.0,8.31,12.57,47.59359,-54.27349
2020-11-14 02:14:01+00:00,54.0,7.04,53.0,7.81,12.57,47.59359,-54.27349
2020-11-14 02:24:01+00:00,44.0,8.66,47.0,9.48,12.57,47.59359,-54.27349
2020-11-14 02:34:01+00:00,45.0,8.32,47.0,9.14,12.57,47.59359,-54.27349
2020-11-14 02:44:01+00:00,53.0,8.34,56.0,9.09,12.57,47.59359,-54.27349
2020-11-14 02:54:01+00:00,45.0,6.49,47.0,7.53,12.57,47.59359,-54.27349
2020-11-14 03:04:01+00:00,51.0,7.18,50.0,8.36,12.57,47.59359,-54.27349
2020-11-14 03:14:01+00:00,47.0,6.98,47.0,7.57,12.57,47.59359,-54.27349
2020-11-14 03:24:01+00:00,51.0,7.27,46.0,8.76,12.57,47.59359,-54.27349
2020-11-14 03:34:01+00:00,50.0,7.62,54.0,8.57,12.57,47.59359,-54.27349
2020-11-14 03:44:01+00:00,54.0,7.61,56.0,8.68,12.57,47.59359,-54.27349
2020-11-14 03:54:01+00:00,60.0,7.47,70.0,9.01,12.57,47.59359,-54.27349
2020-11-14 04:04:01+00:00,62.0,7.22,57.0,8.37,12.57,47.59359,-54.27349
2020-11-14 04:14:01+00:00,68.0,6.93,66.0,7.63,12.49,47.59359,-54.27349
2020-11-14 04:24:01+00:00,74.0,6.6,75.0,8.09,12.49,47.59359,-54.27349
2020-11-14 04:34:01+00:00,79.0,5.09,72.0,6.77,12.49,47.59359,-54.27349
2020-11-14 04:44:01+00:00,80.0,4.42,70.0,5.95,12.49,47.59359,-54.27349
2020-11-14 04:54:01+00:00,82.0,3.97,90.0,6.72,12.49,47.59359,-54.27349
2020-11-14 05:04:01+00:00,83.0,4.65,71.0,6.26,12.49,47.59359,-54.27349
2020-11-14 05:14:01+00:00,84.0,3.12,75.0,4.34,12.49,47.59359,-54.27349
2020-11-14 05:24:01+00:00,85.0,4.29,89.0,6.24,12.49,47.59359,-54.27349
2020-11-14 05:34:01+00:00,98.0,4.51,104.0,6.88,12.49,47.59359,-54.27349
2020-11-14 05:44:01+00:00,111.0,6.36,95.0,9.16,12.49,47.59359,-54.27349
2020-11-14 05:54:01+00:00,118.0,7.13,129.0,9.59,12.49,47.59359,-54.27349
2020-11-14 06:04:01+00:00,106.0,4.8,127.0,7.04,12.49,47.59359,-54.27349
2020-11-14 06:14:01+00:00,108.0,6.29,99.0,9.26,12.49,47.59359,-54.27349
2020-11-14 06:24:01+00:00,93.0,4.21,68.0,7.34,12.49,47.59359,-54.27349
2020-11-14 06:34:01+00:00,90.0,4.7,94.0,8.36,12.49,47.59359,-54.27349
2020-11-14 06:44:01+00:00,97.0,5.16,109.0,8.41,12.49,47.59359,-54.27349
2020-11-14 06:54:01+00:00,91.0,4.29,92.0,7.52,12.49,47.59359,-54.27349
2020-11-14 07:04:01+00:00,92.0,4.53,78.0,7.42,12.49,47.59359,-54.27349
2020-11-14 07:14:01+00:00,90.0,3.36,90.0,5.38,12.49,47.59359,-54.27349
2020-11-14 07:24:01+00:00,101.0,4.34,87.0,7.11,12.49,47.59359,-54.27349
2020-11-14 07:34:01+00:00,98.0,4.15,94.0,7.17,12.49,47.59359,-54.27349
2020-11-14 07:44:01+00:00,97.0,3.83,103.0,6.9,12.49,47.59359,-54.27349
2020-11-14 07:54:01+00:00,99.0,6.85,109.0,9.65,12.49,47.59359,-54.27349
2020-11-14 08:04:01+00:00,98.0,5.03,90.0,8.0,12.49,47.59359,-54.27349
2020-11-14 08:14:01+00:00,99.0,6.06,97.0,8.67,12.41,47.59359,-54.27349
2020-11-14 08:24:01+00:00,116.0,4.3,119.0,7.41,12.41,47.59359,-54.27349
2020-11-14 08:34:01+00:00,107.0,5.33,121.0,9.64,12.41,47.59359,-54.27349
2020-11-14 08:44:01+00:00,102.0,7.02,112.0,10.73,12.41,47.59359,-54.27349
2020-11-14 08:54:01+00:00,96.0,5.86,79.0,9.46,12.41,47.59359,-54.27349
2020-11-14 09:04:01+00:00,100.0,7.23,114.0,11.83,12.41,47.59359,-54.27349
2020-11-14 09:14:01+00:00,97.0,5.21,104.0,7.71,12.41,47.59359,-54.27349
2020-11-14 09:24:01+00:00,102.0,6.99,98.0,10.12,12.41,47.59359,-54.27349
2020-11-14 09:34:01+00:00,96.0,5.34,111.0,7.96,12.41,47.59359,-54.27349
2020-11-14 09:44:01+00:00,94.0,3.99,112.0,6.75,12.41,47.59359,-54.27349
2020-11-14 09:54:01+00:00,98.0,5.24,130.0,8.49,12.41,47.59359,-54.27349
2020-11-14 10:04:01+00:00,92.0,5.16,98.0,8.14,12.41,47.59359,-54.27349
2020-11-14 10:14:01+00:00,97.0,6.23,95.0,10.67,12.41,47.59359,-54.27349
2020-11-14 10:24:01+00:00,87.0,4.67,98.0,7.05,12.41,47.59359,-54.27349
2020-11-14 10:34:01+00:00,92.0,4.71,109.0,7.85,12.41,47.59359,-54.27349
2020-11-14 10:44:01+00:00,89.0,4.62,72.0,6.78,12.41,47.59359,-54.27349
2020-11-14 10:54:01+00:00,85.0,5.87,85.0,8.85,12.41,47.59359,-54.27349
2020-11-14 11:04:01+00:00,78.0,5.48,68.0,8.11,12.41,47.59359,-54.27349
2020-11-14 11:14:01+00:00,78.0,5.34,68.0,7.01,12.41,47.59359,-54.27349
2020-11-14 11:24:01+00:00,71.0,7.72,66.0,9.61,12.41,47.59359,-54.27349
2020-11-14 11:34:01+00:00,77.0,6.59,86.0,8.87,12.41,47.59359,-54.27349
2020-11-14 11:44:01+00:00,67.0,10.3,66.0,12.09,12.41,47.59359,-54.27349
2020-11-14 11:54:01+00:00,79.0,7.8,83.0,10.2,12.41,47.59359,-54.27349
2020-11-14 12:04:01+00:00,85.0,6.05,90.0,8.98,12.41,47.59359,-54.27349
2020-11-14 12:14:01+00:00,74.0,5.8,63.0,7.93,12.41,47.59359,-54.27349
2020-11-14 12:24:01+00:00,75.0,7.92,79.0,9.87,12.41,47.59359,-54.27349
2020-11-14 12:34:01+00:00,65.0,8.08,66.0,9.29,12.41,47.59359,-54.27349
2020-11-14 12:44:01+00:00,70.0,8.71,74.0,9.69,12.41,47.59359,-54.27349
2020-11-14 12:54:01+00:00,60.0,9.6,55.0,11.04,12.41,47.59359,-54.27349
2020-11-14 13:04:01+00:00,62.0,10.84,61.0,12.18,12.41,47.59359,-54.27349
2020-11-14 13:14:01+00:00,65.0,9.97,64.0,11.8,12.49,47.59359,-54.27349
2020-11-14 13:24:01+00:00,70.0,9.99,65.0,11.76,12.49,47.59359,-54.27349
2020-11-14 13:34:01+00:00,72.0,9.81,72.0,12.03,12.49,47.59359,-54.27349
2020-11-14 13:44:01+00:00,75.0,8.83,58.0,12.04,12.49,47.59359,-54.27349
2020-11-14 13:54:01+00:00,74.0,11.05,81.0,14.1,12.49,47.59359,-54.27349
2020-11-14 14:04:01+00:00,69.0,12.4,64.0,13.98,12.49,47.59359,-54.27349
2020-11-14 14:14:01+00:00,71.0,11.63,74.0,13.68,12.65,47.59359,-54.27349
2020-11-14 14:24:01+00:00,66.0,10.83,66.0,12.74,12.65,47.59359,-54.27349
2020-11-14 14:34:01+00:00,67.0,13.24,70.0,15.74,12.65,47.59359,-54.27349
2020-11-14 14:44:01+00:00,65.0,12.14,64.0,14.42,12.65,47.59359,-54.27349
2020-11-14 14:54:01+00:00,65.0,13.09,63.0,15.13,12.65,47.59359,-54.27349
2020-11-14 15:04:01+00:00,63.0,13.61,57.0,16.15,12.65,47.59359,-54.27349
2020-11-14 15:14:01+00:00,63.0,12.87,60.0,15.78,13.05,47.59359,-54.27349
2020-11-14 15:24:01+00:00,62.0,13.51,61.0,15.34,13.05,47.59359,-54.27349
2020-11-14 15:34:01+00:00,61.0,13.24,60.0,16.07,13.05,47.59359,-54.27349
2020-11-14 15:44:01+00:00,66.0,14.5,67.0,16.57,13.05,47.59359,-54.27349
2020-11-14 15:54:01+00:00,65.0,15.23,66.0,17.71,13.05,47.59359,-54.27349
2020-11-14 16:04:01+00:00,61.0,14.5,56.0,16.25,13.05,47.59359,-54.27349
2020-11-14 16:14:01+00:00,68.0,15.75,73.0,17.38,13.13,47.59359,-54.27349
2020-11-14 16:24:01+00:00,68.0,13.59,71.0,16.37,13.13,47.59359,-54.27349
2020-11-14 16:34:01+00:00,69.0,14.58,69.0,17.13,13.13,47.59359,-54.27349
2020-11-14 16:44:01+00:00,68.0,16.17,72.0,19.15,13.13,47.59359,-54.27349
2020-11-14 16:54:01+00:00,63.0,14.27,60.0,17.67,13.13,47.59359,-54.27349
2020-11-14 17:04:01+00:00,66.0,13.91,63.0,16.84,13.13,47.59359,-54.27349
2020-11-14 17:14:01+00:00,65.0,15.73,66.0,18.63,13.05,47.59359,-54.27349
2020-11-14 17:24:01+00:00,63.0,13.6,55.0,17.25,13.05,47.59359,-54.27349
2020-11-14 17:34:01+00:00,60.0,14.7,61.0,17.81,13.05,47.59359,-54.27349
2020-11-14 17:44:01+00:00,61.0,16.71,59.0,19.96,13.05,47.59359,-54.27349
2020-11-14 17:54:01+00:00,60.0,16.06,60.0,18.98,13.05,47.59359,-54.27349
2020-11-14 18:04:01+00:00,63.0,15.09,63.0,18.66,13.05,47.59359,-54.27349
2020-11-14 18:14:01+00:00,55.0,14.89,57.0,16.81,12.89,47.59359,-54.27349
2020-11-14 18:24:01+00:00,60.0,13.89,54.0,16.89,12.89,47.59359,-54.27349
2020-11-14 18:34:01+00:00,61.0,16.18,61.0,18.33,12.89,47.59359,-54.27349
2020-11-14 18:44:01+00:00,62.0,16.31,54.0,21.18,12.89,47.59359,-54.27349
2020-11-14 18:54:01+00:00,59.0,15.4,57.0,17.89,12.89,47.59359,-54.27349
2020-11-14 19:04:01+00:00,61.0,16.77,59.0,21.12,12.89,47.59359,-54.27349
2020-11-14 19:14:01+00:00,60.0,14.36,,,,47.59359,-54.27349
2020-11-14 19:24:01+00:00,61.0,17.53,,,,47.59359,-54.27349
2020-11-14 19:34:01+00:00,61.0,19.04,,,,47.59359,-54.27349
2020-11-14 19:44:01+00:00,58.0,20.33,,,,47.59359,-54.27349
2020-11-14 19:54:01+00:00,63.0,15.92,,,,47.59359,-54.27349
2020-11-14 20:04:01+00:00,59.0,16.08,,,,47.59359,-54.27349
2020-11-14 20:14:01+00:00,64.0,14.28,57.0,16.89,12.57,47.59359,-54.27349
2020-11-14 20:24:01+00:00,61.0,15.69,72.0,19.5,12.57,47.59359,-54.27349
2020-11-14 20:34:01+00:00,63.0,15.13,72.0,18.32,12.57,47.59359,-54.27349
2020-11-14 20:44:01+00:00,57.0,14.08,55.0,17.45,12.57,47.59359,-54.27349
2020-11-14 20:54:01+00:00,55.0,15.18,55.0,16.9,12.57,47.59359,-54.27349
2020-11-14 21:04:01+00:00,57.0,14.05,57.0,16.45,12.57,47.59359,-54.27349
2020-11-14 21:14:01+00:00,55.0,16.41,55.0,18.65,12.41,47.59359,-54.27349
2020-11-14 21:24:01+00:00,61.0,14.77,58.0,17.53,12.41,47.59359,-54.27349
2020-11-14 21:34:01+00:00,62.0,15.18,60.0,19.45,12.41,47.59359,-54.27349
2020-11-14 21:44:01+00:00,59.0,16.0,58.0,20.52,12.41,47.59359,-54.27349
2020-11-14 21:54:01+00:00,53.0,16.75,54.0,18.59,12.41,47.59359,-54.27349
2020-11-14 22:04:01+00:00,55.0,15.35,55.0,18.65,12.41,47.59359,-54.27349
2020-11-14 22:14:01+00:00,55.0,14.96,44.0,17.12,12.41,47.59359,-54.27349
2020-11-14 22:24:01+00:00,53.0,17.08,51.0,19.27,12.41,47.59359,-54.27349
2020-11-14 22:34:01+00:00,54.0,16.85,54.0,19.64,12.41,47.59359,-54.27349
2020-11-14 22:44:01+00:00,58.0,17.37,61.0,19.79,12.41,47.59359,-54.27349
2020-11-14 22:54:01+00:00,54.0,17.58,52.0,19.83,12.41,47.59359,-54.27349
2020-11-14 23:04:01+00:00,59.0,14.66,52.0,17.49,12.41,47.59359,-54.27349
2020-11-14 23:14:01+00:00,53.0,15.1,50.0,18.02,12.41,47.59359,-54.27349
2020-11-14 23:24:01+00:00,53.0,14.4,53.0,16.82,12.41,47.59359,-54.27349
2020-11-14 23:34:01+00:00,51.0,14.19,44.0,17.5,12.41,47.59359,-54.27349
2020-11-14 23:44:01+00:00,48.0,15.15,44.0,17.94,12.41,47.59359,-54.27349
2020-11-14 23:54:01+00:00,51.0,16.77,52.0,18.74,12.41,47.59359,-54.27349
